DW5092 Weather Reports


time (UTC)temp
F
wind
direction
speed
knots
gust
knots
rain 1hr
in
rain 24hr
in
rain mn
in
humidity
%
barometer
mb
20260906221203 92 299 0.0 0.9 0.00 0.00 0.00 34 1010.5
20260906220004 93 0 0.0 0.0 0.00 0.00 0.00 33 1010.6
20260906214802 93 0 0.0 0.0 0.00 0.00 0.00 33 1010.9
20260906213603 92 0 0.0 0.0 0.00 0.00 0.00 35 1011.1
20260906212402 92 0 0.0 0.0 0.00 0.00 0.00 34 1011.3
20260906211203 90 218 0.0 4.3 0.00 0.00 0.00 36 1011.5
20260906210003 90 219 0.0 3.5 0.00 0.00 0.00 37 1011.6
20260906204802 89 284 0.0 0.9 0.00 0.00 0.00 39 1011.9
20260906202403 88 245 0.0 7.0 0.00 0.00 0.00 41 1012.1
20260906200003 87 108 0.0 0.9 0.00 0.00 0.00 41 1012.6
20260906193603 84 125 0.9 4.3 0.00 0.00 0.00 45 1012.9
20260906192403 84 286 0.9 5.2 0.00 0.00 0.00 47 1013.2
20260906190003 82 56 0.0 3.5 0.00 0.00 0.00 50 1013.7
20260906184803 81 16 0.9 6.1 0.00 0.00 0.00 50 1013.8
20260906183602 82 294 0.0 5.2 0.00 0.00 0.00 52 1014.0
20260906182403 81 289 0.9 3.5 0.00 0.00 0.00 52 1014.3
20260906181203 80 259 1.7 4.3 0.00 0.00 0.00 54 1014.4
20260906174802 79 282 0.0 3.5 0.00 0.00 0.00 55 1014.8
20260906172403 77 97 0.0 3.5 0.00 0.00 0.00 57 1015.1
20260906170003 76 66 0.9 3.5 0.00 0.00 0.00 60 1015.5
20260906164802 75 85 0.0 2.6 0.00 0.00 0.00 61 1015.6
20260906163603 75 83 0.9 5.2 0.00 0.00 0.00 62 1015.8
20260906162403 74 64 0.9 3.5 0.00 0.00 0.00 61 1015.7
20260906161203 73 80 0.9 4.3 0.00 0.00 0.00 61 1015.8
20260906160003 72 77 0.9 3.5 0.00 0.00 0.00 59 1016.0
20260906154803 72 77 0.9 3.5 0.00 0.00 0.00 59 1016.1
20260906153603 71 91 2.6 4.3 0.00 0.00 0.00 59 1016.1
20260906152403 70 315 0.0 3.5 0.00 0.00 0.00 63 1016.1
20260906151203 68 314 2.6 4.3 0.00 0.00 0.00 64 1016.2
20260906150003 67 307 1.7 3.5 0.00 0.00 0.00 65 1016.3
20260906144802 65 0 0.0 0.0 0.00 0.00 0.00 67 1016.6
20260906143603 61 0 0.0 0.0 0.00 0.00 0.00 74 1016.7
20260906142403 59 0 0.0 0.0 0.00 0.00 0.00 77 1016.3
20260906141203 57 0 0.0 0.0 0.00 0.00 0.00 81 1016.4
20260906140003 55 0 0.0 0.0 0.00 0.00 0.00 84 1016.3
20260906134803 54 0 0.0 0.0 0.00 0.00 0.00 86 1016.3
20260906132403 50 305 0.0 0.9 0.00 0.00 0.00 90 1016.4
20260906131202 50 0 0.0 0.0 0.00 0.00 0.00 90 1016.4
20260906130003 49 0 0.0 0.0 0.00 0.00 0.00 90 1016.6
20260906124803 49 0 0.0 0.0 0.00 0.00 0.00 90 1016.3
20260906123603 49 0 0.0 0.0 0.00 0.00 0.00 89 1016.3
20260906122403 50 0 0.0 0.0 0.00 0.00 0.00 89 1016.1
20260906120003 50 0 0.0 0.0 0.00 0.00 0.00 88 1015.8
20260906114803 51 0 0.0 0.0 0.00 0.00 0.00 87 1015.6
20260906112403 51 0 0.0 0.0 0.00 0.00 0.00 87 1015.3
20260906111203 51 0 0.0 0.0 0.00 0.00 0.00 86 1015.3
20260906110004 52 0 0.0 0.0 0.00 0.00 0.00 85 1015.2
20260906104803 52 0 0.0 0.0 0.00 0.00 0.00 85 1015.1
20260906103603 52 0 0.0 0.0 0.00 0.00 0.00 84 1015.0
20260906102404 53 0 0.0 0.0 0.00 0.00 0.00 84 1015.3
20260906101203 53 0 0.0 0.0 0.00 0.00 0.00 83 1015.1
20260906100004 53 0 0.0 0.0 0.00 0.00 0.00 83 1015.0
20260906094803 53 0 0.0 0.0 0.00 0.00 0.00 83 1015.0
20260906093603 53 0 0.0 0.0 0.00 0.00 0.00 82 1015.0
20260906092403 54 0 0.0 0.0 0.00 0.00 0.00 81 1015.0
20260906091203 54 0 0.0 0.0 0.00 0.00 0.00 80 1014.9
20260906084803 55 0 0.0 0.0 0.00 0.00 0.00 82 1015.2
20260906083603 55 0 0.0 0.0 0.00 0.00 0.00 80 1015.4
20260906081204 56 0 0.0 0.0 0.00 0.00 0.00 78 1015.5
20260906080004 56 0 0.0 0.0 0.00 0.00 0.00 77 1015.6
20260906074803 56 0 0.0 0.0 0.00 0.00 0.00 77 1015.7
20260906072404 57 0 0.0 0.0 0.00 0.00 0.00 76 1015.7
20260906065955 58 0 0.0 0.0 0.00 0.00 0.00 76 1015.7
20260906064755 58 0 0.0 0.0 0.00 0.00 0.00 75 1015.7
20260906063555 58 308 0.0 1.7 0.00 0.00 0.00 75 1015.7
20260906062355 58 0 0.0 0.0 0.00 0.00 0.00 74 1015.9
20260906061155 59 0 0.0 0.0 0.00 0.00 0.00 73 1015.9
20260906054755 60 0 0.0 0.0 0.00 0.00 0.00 71 1016.0
20260906053555 60 0 0.0 0.0 0.00 0.00 0.00 71 1016.1
20260906052356 60 0 0.0 0.0 0.00 0.00 0.00 70 1016.3
20260906051155 60 0 0.0 0.0 0.00 0.00 0.00 69 1016.3
20260906045955 61 0 0.0 0.0 0.00 0.00 0.00 68 1016.1
20260906044755 61 0 0.0 0.0 0.00 0.00 0.00 68 1016.3
20260906043555 61 0 0.0 0.0 0.00 0.00 0.00 68 1016.2
20260906042355 62 0 0.0 0.0 0.00 0.00 0.00 67 1016.2
20260906041154 63 0 0.0 0.0 0.00 0.00 0.00 65 1016.0
20260906035955 64 0 0.0 0.0 0.00 0.00 0.00 66 1015.9
20260906034755 64 0 0.0 0.0 0.00 0.00 0.00 65 1015.8
20260906033555 65 0 0.0 0.0 0.00 0.00 0.00 65 1015.6
20260906032355 66 0 0.0 0.0 0.00 0.00 0.00 64 1015.7
20260906025955 67 0 0.0 0.0 0.00 0.00 0.00 62 1015.7
20260906024755 69 0 0.0 0.0 0.00 0.00 0.00 60 1015.5
20260906023555 70 0 0.0 0.0 0.00 0.00 0.00 57 1015.1
20260906021155 73 0 0.0 0.0 0.00 0.00 0.00 54 1014.9
20260906015955 74 0 0.0 0.0 0.00 0.00 0.00 51 1015.0
20260906014755 76 0 0.0 0.0 0.00 0.00 0.00 48 1014.9
20260906013555 78 0 0.0 0.0 0.00 0.00 0.00 45 1014.9
20260906012355 80 0 0.0 0.0 0.00 0.00 0.00 43 1014.9
20260906011155 81 0 0.0 0.0 0.00 0.00 0.00 41 1014.8
20260906004756 85 0 0.0 0.0 0.00 0.00 0.00 35 1014.9
20260906003555 87 0 0.0 0.0 0.00 0.00 0.00 33 1014.9
20260906002355 87 0 0.0 0.0 0.00 0.00 0.00 34 1014.9
20260906001155 87 0 0.0 0.0 0.00 0.00 0.00 33 1014.9
20260905234755 88 336 0.0 0.9 0.00 0.00 0.00 32 1015.1
20260905233555 87 0 0.0 0.0 0.00 0.00 0.00 30 1014.9
20260905232355 86 0 0.0 0.0 0.00 0.00 0.00 32 1015.0
20260905231155 84 121 0.9 5.2 0.00 0.00 0.00 31 1014.8
20260905225956 85 58 0.0 0.9 0.00 0.00 0.00 33 1015.3
20260905224755 85 74 0.0 2.6 0.00 0.00 0.00 32 1015.2
20260905223556 85 85 0.0 3.5 0.00 0.00 0.00 35 1015.2
20260905222355 85 82 0.0 2.6 0.00 0.00 0.00 32 1015.3